Powrót do katalogu

STARLINK-30146

AktywnyŁącznośćVLEO
NORAD 57442·PAYLOAD·🇺🇸 United States

Wystrzelony Jul 24, 2023 z Cape Canaveral Space Force Station

Loading…

Następne Przeloty (najbliższe 24 godziny)

TLE

ŚwieżeSource: CelesTrak SupGP

Epoka: Sep 15, 2026, 02:26 UTC

1 57442C 23105N   26258.10187500 -.00007034  00000+0 -25476-3 0  2588
2 57442  42.9997 270.2867 0001304 259.5511 270.5575 15.27582741    16

Śledź STARLINK-30146 w czasie rzeczywistym z AllMySat

Download on the App Store